Lakeview, OR

1:26 AM PST on February 07, 2016 (GMT -0800)
Lake County

Weather History for KLKV - June, 2013

Change the Weather History Date:

Sunday, June 9, 2013

  Actual Average Record
Temperature  
Mean Temperature 74 °F -  
Max Temperature 93 °F 70 °F 94 °F (1955)
Min Temperature 55 °F 43 °F 28 °F (2002)
Cooling Degree Days 9    
Growing Degree Days 24 (Base 50)    
Moisture  
Dew Point 39 °F    
Average Humidity 30    
Maximum Humidity 54    
Minimum Humidity 16    
Precipitation  
Precipitation 0.00 in - - ()
Sea Level Pressure  
Sea Level Pressure 30.00 in    
Wind  
Wind Speed 10 mph (North)    
Max Wind Speed 17 mph    
Max Gust Speed 23 mph    
Visibility 10 miles    
Events      
Averages and records for this station are not official NWS values.
T = Trace of Precipitation, MM = Missing Value Source: NWS Daily Summary

Daily Weather History Graph

Daily Weather History Graph

Search for Another Location

Airport or City:

Trip Planner

Search our weather history database for the weather conditions in past years. The results will help you decide how hot, cold, wet, or windy it might be!

Date:

Astronomy

Jun. 09, 2013 Rise Set
Actual Time 5:25 AM PDT 8:36 PM PDT
Civil Twilight 4:51 AM PDT 9:11 PM PDT
Nautical Twilight 4:06 AM PDT 9:55 PM PDT
Astronomical Twilight 3:13 AM PDT 10:48 PM PDT
Moon 6:27 AM PDT (6/9) 9:25 PM PDT (6/9)
Length of Visible Light 16h 20m
Length of Day
15h 11m
New Moon, 1% of the Moon is Illuminated
Jun 9
New Moon
Jun 16
First Quarter
Jun 23
Full
Jun 29
Last Quarter
Jul 8
New

Hourly Weather History & Observations

Time (PDT) Temp. Dew Point Humidity Pressure Visibility Wind Dir Wind Speed Gust Speed Precip Events Conditions
12:15 AM 64.4 °F 37.4 °F 37% 30.11 in 10.0 mi NNW 11.5 mph - N/A   Clear
12:35 AM 64.4 °F 37.4 °F 37% 30.11 in 10.0 mi NNW 12.7 mph - N/A   Clear
12:55 AM 62.6 °F 37.4 °F 39% 30.10 in 10.0 mi NNW 12.7 mph - N/A   Clear
1:15 AM 60.8 °F 37.4 °F 42% 30.10 in 10.0 mi NNW 13.8 mph - N/A   Clear
1:35 AM 64.4 °F 35.6 °F 34% 30.10 in 10.0 mi North 15.0 mph 20.7 mph N/A   Clear
1:55 AM 66.2 °F 35.6 °F 32% 30.09 in 10.0 mi North 16.1 mph - N/A   Clear
2:15 AM 64.4 °F 35.6 °F 34% 30.09 in 10.0 mi North 15.0 mph 19.6 mph N/A   Clear
2:35 AM 64.4 °F 35.6 °F 34% 30.09 in 10.0 mi NNW 16.1 mph 20.7 mph N/A   Clear
2:55 AM 64.4 °F 35.6 °F 34% 30.09 in 10.0 mi North 15.0 mph - N/A   Clear
3:15 AM 62.6 °F 35.6 °F 37% 30.08 in 10.0 mi NNW 15.0 mph 20.7 mph N/A   Clear
3:35 AM 62.6 °F 35.6 °F 37% 30.08 in 10.0 mi North 15.0 mph 19.6 mph N/A   Clear
3:55 AM 62.6 °F 37.4 °F 39% 30.07 in 10.0 mi NNW 13.8 mph - N/A   Clear
4:15 AM 62.6 °F 37.4 °F 39% 30.06 in 10.0 mi NNW 12.7 mph - N/A   Clear
4:35 AM 60.8 °F 37.4 °F 42% 30.06 in 10.0 mi NNW 15.0 mph - N/A   Clear
4:55 AM 60.8 °F 37.4 °F 42% 30.06 in 10.0 mi NNW 12.7 mph - N/A   Clear
5:15 AM 57.2 °F 37.4 °F 48% 30.06 in 10.0 mi NNW 11.5 mph - N/A   Clear
5:35 AM 57.2 °F 39.2 °F 51% 30.06 in 10.0 mi NNW 9.2 mph - N/A   Clear
5:55 AM 55.4 °F 39.2 °F 54% 30.06 in 10.0 mi NNW 8.1 mph - N/A   Clear
6:15 AM 57.2 °F 39.2 °F 51% 30.06 in 10.0 mi NNW 10.4 mph - N/A   Clear
6:35 AM 59.0 °F 39.2 °F 48% 30.06 in 10.0 mi NNW 10.4 mph - N/A   Clear
6:55 AM 60.8 °F 41.0 °F 48% 30.06 in 10.0 mi NNW 9.2 mph - N/A   Clear
7:15 AM 62.6 °F 44.6 °F 52% 30.06 in 10.0 mi ENE 3.5 mph - N/A   Clear
7:35 AM 62.6 °F 44.6 °F 52% 30.06 in 10.0 mi East 4.6 mph - N/A   Clear
7:55 AM 64.4 °F 46.4 °F 52% 30.06 in 10.0 mi ESE 3.5 mph - N/A   Clear
8:15 AM 66.2 °F 44.6 °F 46% 30.06 in 10.0 mi East 4.6 mph - N/A   Clear
8:35 AM 68.0 °F 44.6 °F 43% 30.06 in 10.0 mi East 3.5 mph - N/A   Clear
8:55 AM 69.8 °F 44.6 °F 40% 30.06 in 10.0 mi Calm Calm - N/A   Clear
9:15 AM 71.6 °F 42.8 °F 35% 30.06 in 10.0 mi East 3.5 mph - N/A   Clear
9:35 AM 73.4 °F 44.6 °F 36% 30.05 in 10.0 mi East 3.5 mph - N/A   Clear
9:55 AM 75.2 °F 39.2 °F 27% 30.05 in 10.0 mi ESE 3.5 mph - N/A   Clear
10:15 AM 75.2 °F 41.0 °F 29% 30.04 in 10.0 mi ESE 4.6 mph - N/A   Clear
10:35 AM 78.8 °F 41.0 °F 26% 30.04 in 10.0 mi SSE 3.5 mph - N/A   Clear
10:55 AM 80.6 °F 37.4 °F 21% 30.03 in 10.0 mi SE 4.6 mph - N/A   Clear
11:15 AM 80.6 °F 37.4 °F 21% 30.03 in 10.0 mi NE 3.5 mph - N/A   Clear
11:35 AM 82.4 °F 39.2 °F 21% 30.03 in 10.0 mi ENE 3.5 mph - N/A   Clear
11:55 AM 82.4 °F 41.0 °F 23% 30.02 in 10.0 mi SE 3.5 mph - N/A   Clear
12:15 PM 84.2 °F 42.8 °F 23% 30.02 in 10.0 mi SE 4.6 mph - N/A   Clear
12:35 PM 84.2 °F 42.8 °F 23% 30.01 in 10.0 mi SSE 6.9 mph - N/A   Clear
12:55 PM 86.0 °F 39.2 °F 19% 30.00 in 10.0 mi SE 4.6 mph - N/A   Clear
1:15 PM 87.8 °F 41.0 °F 19% 29.99 in 10.0 mi SE 9.2 mph - N/A   Clear
1:35 PM 87.8 °F 42.8 °F 21% 29.99 in 10.0 mi ESE 5.8 mph - N/A   Clear
1:55 PM 87.8 °F 42.8 °F 21% 29.97 in 10.0 mi ESE 9.2 mph - N/A   Clear
2:15 PM 89.6 °F 44.6 °F 21% 29.97 in 8.0 mi ESE 8.1 mph - N/A   Clear
2:35 PM 89.6 °F 44.6 °F 21% 29.96 in 10.0 mi ESE 9.2 mph - N/A   Clear
2:55 PM 89.6 °F 44.6 °F 21% 29.95 in 10.0 mi SE 11.5 mph 21.9 mph N/A   Clear
3:15 PM 89.6 °F 42.8 °F 20% 29.94 in 10.0 mi SE 8.1 mph - N/A   Clear
3:35 PM 91.4 °F 42.8 °F 18% 29.93 in 10.0 mi South 3.5 mph - N/A   Clear
3:55 PM 91.4 °F 42.8 °F 18% 29.93 in 10.0 mi NW 9.2 mph - N/A   Clear
4:15 PM 93.2 °F 41.0 °F 16% 29.92 in 10.0 mi SSW 6.9 mph - N/A   Clear
4:35 PM 93.2 °F 41.0 °F 16% 29.91 in 10.0 mi NW 10.4 mph - N/A   Clear
4:55 PM 91.4 °F 41.0 °F 17% 29.91 in 10.0 mi West 15.0 mph 19.6 mph N/A   Clear
5:15 PM 91.4 °F 42.8 °F 18% 29.90 in 10.0 mi West 10.4 mph - N/A   Clear
5:35 PM 91.4 °F 41.0 °F 17% 29.90 in 10.0 mi WNW 6.9 mph 16.1 mph N/A   Clear
5:55 PM 91.4 °F 42.8 °F 18% 29.89 in 10.0 mi NW 12.7 mph 18.4 mph N/A   Clear
6:15 PM 89.6 °F 39.2 °F 17% 29.89 in 10.0 mi NW 12.7 mph 16.1 mph N/A   Clear
6:35 PM 89.6 °F 41.0 °F 18% 29.89 in 10.0 mi West 11.5 mph - N/A   Clear
6:55 PM 87.8 °F 39.2 °F 18% 29.89 in 10.0 mi WNW 6.9 mph - N/A   Clear
7:15 PM 87.8 °F 41.0 °F 19% 29.89 in 10.0 mi WNW 9.2 mph - N/A   Clear
7:35 PM 87.8 °F 42.8 °F 21% 29.89 in 10.0 mi NW 11.5 mph - N/A   Clear
7:55 PM 86.0 °F 44.6 °F 23% 29.90 in 10.0 mi NW 6.9 mph - N/A   Clear
8:15 PM 80.6 °F 44.6 °F 28% 29.90 in 10.0 mi NW 9.2 mph - N/A   Clear
8:35 PM 77.0 °F 42.8 °F 29% 29.91 in 10.0 mi NNW 6.9 mph - N/A   Clear
8:55 PM 75.2 °F 42.8 °F 31% 29.92 in 10.0 mi North 8.1 mph - N/A   Clear
9:15 PM 73.4 °F 37.4 °F 27% 29.93 in 10.0 mi North 9.2 mph - N/A   Clear
9:35 PM 73.4 °F 30.2 °F 20% 29.94 in 10.0 mi North 10.4 mph - N/A   Clear
9:55 PM 71.6 °F 30.2 °F 22% 29.94 in 10.0 mi North 10.4 mph - N/A   Clear
10:15 PM 69.8 °F 30.2 °F 23% 29.95 in 10.0 mi North 10.4 mph - N/A   Clear
10:35 PM 71.6 °F 28.4 °F 20% 29.95 in 10.0 mi North 11.5 mph - N/A   Clear
10:55 PM 69.8 °F 28.4 °F 21% 29.95 in 10.0 mi North 10.4 mph - N/A   Clear
11:15 PM 71.6 °F 28.4 °F 20% 29.94 in 10.0 mi NNW 13.8 mph - N/A   Mostly Cloudy
11:35 PM 69.8 °F 28.4 °F 21% 29.93 in 10.0 mi NNW 13.8 mph 21.9 mph N/A   Scattered Clouds
11:55 PM 68.0 °F 30.2 °F 24% 29.93 in 10.0 mi North 17.3 mph 23.0 mph N/A   Clear